Weather History for Fort Campbell, KY

Change the Weather History Date:

Tuesday, March 25, 2014

  Actual Average Record
Temperature  
Mean Temperature 35 °F -  
Max Temperature 41 °F 61 °F 85 °F (2007)
Min Temperature 28 °F 39 °F 23 °F (2001)
Degree Days  
Heating Degree Days 30    
Moisture  
Dew Point 27 °F    
Average Humidity 77    
Maximum Humidity 100    
Minimum Humidity 31    
Precipitation  
Precipitation 0.01 in - - ()
Sea Level Pressure  
Sea Level Pressure 30.16 in    
Wind  
Wind Speed 10 mph (NW)    
Max Wind Speed 26 mph    
Max Gust Speed 40 mph    
Visibility 9 miles    
Events Snow    
Averages and records for this station are not official NWS values.
T = Trace of Precipitation, MM = Missing Value Source: NWS Daily Summary

Daily Weather History Graph

Daily Weather History Graph

Search for Another Location

Airport:

Trip Planner

Search our weather history database for the weather conditions in past years. The results will help you decide how hot, cold, wet, or windy it might be!

Date:

Astronomy

Mar. 25, 2014 Rise Set
Actual Time 6:46 AM CDT 7:06 PM CDT
Civil Twilight 6:20 AM CDT 7:32 PM CDT
Nautical Twilight 5:50 AM CDT 8:02 PM CDT
Astronomical Twilight 5:19 AM CDT 8:33 PM CDT
Moon 2:59 AM CDT (3/25) 1:44 PM CDT (3/25)
Length of Visible Light 13h 11m
Length of Day
12h 20m
Waning Crescent, 32% of the Moon is Illuminated
Mar 25
Waning Crescent
Mar 30
New
Apr 7
First Quarter
Apr 15
Full
Apr 22
Last Quarter

Hourly Weather History & Observations

Time (CDT) Temp. Windchill Dew Point Humidity Pressure Visibility Wind Dir Wind Speed Gust Speed Precip Events Conditions
12:58 AM 34.9 °F 29.0 °F 23.5 °F 63% 30.13 in 10.0 mi North 6.9 mph - N/A   Overcast
1:58 AM 32.5 °F 25.5 °F 24.6 °F 73% 30.11 in 10.0 mi North 8.1 mph - N/A   Partly Cloudy
2:58 AM 31.5 °F 26.8 °F 27.0 °F 83% 30.10 in 10.0 mi North 4.6 mph - N/A   Mostly Cloudy
3:58 AM 31.3 °F 26.6 °F 28.9 °F 91% 30.10 in 10.0 mi NW 4.6 mph - N/A   Mostly Cloudy
4:03 AM 32.0 °F 27.5 °F 28.4 °F 87% 30.08 in 10.0 mi NW 4.6 mph - N/A Snow Light Snow
4:22 AM 32.0 °F 27.5 °F 30.2 °F 93% 30.07 in 10.0 mi NNW 4.6 mph - N/A   Mostly Cloudy
4:39 AM 32.0 °F 26.4 °F 32.0 °F 100% 30.07 in 10.0 mi NNW 5.8 mph - N/A Snow Light Snow
4:58 AM 31.5 °F 25.8 °F 31.3 °F 99% 30.09 in 10.0 mi NW 5.8 mph - 0.00 in Snow Light Snow
5:21 AM 32.0 °F 27.5 °F 32.0 °F 100% 30.07 in 9.0 mi NW 4.6 mph - N/A Snow Light Snow
5:26 AM 32.0 °F 26.4 °F 32.0 °F 100% 30.07 in 8.0 mi NW 5.8 mph - N/A Snow Light Snow
5:41 AM 32.0 °F 26.4 °F 32.0 °F 100% 30.07 in 10.0 mi NW 5.8 mph - N/A Snow Light Snow
5:47 AM 32.0 °F 26.4 °F 32.0 °F 100% 30.07 in 10.0 mi WNW 5.8 mph - N/A Snow Light Snow
5:48 AM 32.0 °F 26.4 °F 32.0 °F 100% 30.07 in 10.0 mi WNW 5.8 mph - N/A Snow Light Snow
5:58 AM 31.6 °F 27.0 °F 31.5 °F 99% 30.10 in 9.0 mi NW 4.6 mph - 0.00 in Snow Light Snow
6:42 AM 32.0 °F 24.2 °F 32.0 °F 100% 30.08 in 5.0 mi NNW 9.2 mph - N/A Snow Light Snow
6:58 AM 31.1 °F 24.5 °F 31.1 °F 100% 30.11 in 4.0 mi NW 6.9 mph - 0.00 in Snow Light Snow
7:41 AM 32.0 °F 26.4 °F 32.0 °F 100% 30.12 in 10.0 mi NW 5.8 mph - N/A   Overcast
7:52 AM 32.0 °F 26.4 °F 32.0 °F 100% 30.12 in 10.0 mi NW 5.8 mph - N/A Snow Light Snow
7:58 AM 30.9 °F 25.2 °F 30.7 °F 99% 30.14 in 10.0 mi NW 5.8 mph - 0.00 in Snow Light Snow
8:01 AM 32.0 °F 25.6 °F 32.0 °F 100% 30.13 in 10.0 mi WNW 6.9 mph - N/A   Overcast
8:13 AM 32.0 °F 26.4 °F 32.0 °F 100% 30.13 in 10.0 mi NW 5.8 mph - N/A Snow Light Snow
8:34 AM 32.0 °F 25.6 °F 32.0 °F 100% 30.14 in 9.0 mi NW 6.9 mph - N/A Snow Light Snow
8:58 AM 31.8 °F 23.9 °F 31.5 °F 99% 30.16 in 3.0 mi WNW 9.2 mph - 0.00 in Snow Light Snow
9:23 AM 32.0 °F 24.8 °F 32.0 °F 100% 30.15 in 7.0 mi WNW 8.1 mph - N/A Snow Light Snow
9:35 AM 32.0 °F 23.6 °F 32.0 °F 100% 30.15 in 9.0 mi WNW 10.4 mph - N/A Snow Light Snow
9:52 AM 32.0 °F 24.8 °F 32.0 °F 100% 30.15 in 2.5 mi WNW 8.1 mph - N/A Snow Light Snow
9:55 AM 32.0 °F 23.6 °F 32.0 °F 100% 30.15 in 2.0 mi NW 10.4 mph - N/A Snow Light Snow
9:58 AM 33.3 °F 24.6 °F 33.1 °F 99% 30.17 in 2.5 mi WNW 11.5 mph - 0.00 in Snow Light Snow
10:00 AM 32.0 °F 23.0 °F 32.0 °F 100% 30.15 in 3.0 mi WNW 11.5 mph - N/A Snow Light Snow
10:08 AM 33.8 °F 24.8 °F 33.8 °F 100% 30.16 in 8.0 mi NW 12.7 mph - N/A Snow Light Snow
10:20 AM 35.6 °F 27.5 °F 33.8 °F 93% 30.15 in 10.0 mi NW 11.5 mph 18.4 mph N/A   Mostly Cloudy
10:23 AM 37.4 °F 29.8 °F 33.8 °F 87% 30.16 in 10.0 mi NW 11.5 mph 18.4 mph N/A   Mostly Cloudy
10:34 AM 35.6 °F 27.1 °F 32.0 °F 87% 30.16 in 10.0 mi NW 12.7 mph - N/A   Overcast
10:35 AM 35.6 °F 26.2 °F 32.0 °F 87% 30.16 in 10.0 mi NW 15.0 mph 19.6 mph N/A   Overcast
10:37 AM 35.6 °F 25.5 °F 30.2 °F 81% 30.16 in 10.0 mi NW 17.3 mph 24.2 mph N/A Snow Light Snow
10:41 AM 35.6 °F 25.9 °F 32.0 °F 87% 30.17 in 6.0 mi WNW 16.1 mph 24.2 mph N/A Snow Light Snow
10:43 AM 35.6 °F 26.2 °F 32.0 °F 87% 30.17 in 6.0 mi NW 15.0 mph 24.2 mph N/A Snow Light Snow
10:44 AM 35.6 °F 26.6 °F 32.0 °F 87% 30.17 in 6.0 mi NW 13.8 mph 24.2 mph N/A Snow Light Snow
10:46 AM 35.6 °F 27.1 °F 32.0 °F 87% 30.17 in 6.0 mi NW 12.7 mph 24.2 mph N/A Snow Light Snow
10:52 AM 35.6 °F 25.9 °F 32.0 °F 87% 30.17 in 10.0 mi NW 16.1 mph 23.0 mph N/A   Overcast
10:53 AM 37.4 °F 28.2 °F 32.0 °F 81% 30.16 in 10.0 mi NW 16.1 mph 23.0 mph N/A   Overcast
10:58 AM 37.0 °F 28.1 °F 32.7 °F 84% 30.18 in 10.0 mi WNW 15.0 mph 23.0 mph 0.00 in   Overcast
11:00 AM 37.4 °F 28.5 °F 32.0 °F 81% 30.16 in 10.0 mi NW 15.0 mph 21.9 mph N/A   Mostly Cloudy
11:04 AM 37.4 °F 28.2 °F 32.0 °F 81% 30.16 in 10.0 mi NW 16.1 mph 21.9 mph N/A   Light Drizzle
11:13 AM 39.2 °F 31.6 °F 32.0 °F 75% 30.16 in 10.0 mi NW 12.7 mph 18.4 mph N/A   Mostly Cloudy
11:25 AM 39.2 °F 28.5 °F 26.6 °F 61% 30.16 in 10.0 mi North 24.2 mph 29.9 mph N/A   Scattered Clouds
11:27 AM 37.4 °F 26.6 °F 26.6 °F 65% 30.16 in 10.0 mi North 21.9 mph 29.9 mph N/A Snow Light Snow
11:52 AM 35.6 °F 27.5 °F 30.2 °F 81% 30.17 in 10.0 mi NW 11.5 mph 18.4 mph N/A   Mostly Cloudy
11:58 AM 37.0 °F 28.9 °F 30.2 °F 76% 30.19 in 10.0 mi NW 12.7 mph 20.7 mph 0.00 in   Mostly Cloudy
12:09 PM 37.4 °F 29.3 °F 26.6 °F 65% 30.17 in 9.0 mi NW 12.7 mph 20.7 mph N/A Snow Light Snow
12:17 PM 35.6 °F 26.6 °F 26.6 °F 70% 30.17 in 5.0 mi NW 13.8 mph 19.6 mph N/A Snow Light Snow
12:20 PM 35.6 °F 27.1 °F 26.6 °F 70% 30.17 in 5.0 mi NW 12.7 mph 18.4 mph N/A Snow Light Snow
12:30 PM 39.2 °F 29.8 °F 26.6 °F 61% 30.17 in 10.0 mi NW 18.4 mph 21.9 mph N/A   Scattered Clouds
12:58 PM 39.4 °F 28.3 °F 19.9 °F 46% 30.20 in 10.0 mi WNW 26.5 mph 34.5 mph 0.01 in   Scattered Clouds
1:27 PM 39.2 °F 29.0 °F 17.6 °F 42% 30.19 in 8.0 mi WNW 21.9 mph 40.3 mph N/A   Unknown
1:37 PM 39.2 °F 30.2 °F 17.6 °F 42% 30.18 in 10.0 mi NW 17.3 mph 28.8 mph N/A   Mostly Cloudy
1:47 PM 39.2 °F 29.0 °F 15.8 °F 39% 30.18 in 10.0 mi WNW 21.9 mph 29.9 mph N/A   Unknown
1:56 PM 39.2 °F 29.0 °F 15.8 °F 39% 30.18 in 10.0 mi NW 21.9 mph 29.9 mph N/A   Mostly Cloudy
1:58 PM 39.6 °F 29.5 °F 15.8 °F 38% 30.20 in 10.0 mi NW 21.9 mph 29.9 mph 0.00 in   Mostly Cloudy
2:19 PM 41.0 °F 32.2 °F 15.8 °F 36% 30.18 in 10.0 mi NNW 18.4 mph 24.2 mph N/A   Mostly Cloudy
2:58 PM 38.7 °F 29.8 °F 15.1 °F 38% 30.21 in 10.0 mi NW 16.1 mph 24.2 mph N/A   Mostly Cloudy
3:58 PM 39.6 °F 30.6 °F 12.6 °F 33% 30.21 in 10.0 mi NW 17.3 mph 25.3 mph N/A   Scattered Clouds
4:44 PM 41.0 °F 33.1 °F 12.2 °F 31% 30.20 in 10.0 mi NNW 15.0 mph 25.3 mph N/A   Mostly Cloudy
4:58 PM 40.5 °F 32.5 °F 13.1 °F 33% 30.22 in 10.0 mi NW 15.0 mph 20.7 mph N/A   Overcast
5:58 PM 37.9 °F 31.5 °F 12.7 °F 36% 30.23 in 10.0 mi NW 9.2 mph - N/A   Partly Cloudy
6:58 PM 36.5 °F 30.3 °F 12.7 °F 38% 30.24 in 10.0 mi NW 8.1 mph - N/A   Clear
7:58 PM 35.1 °F 30.1 °F 12.7 °F 40% 30.25 in 10.0 mi NW 5.8 mph - N/A   Partly Cloudy
8:58 PM 32.9 °F 28.5 °F 12.9 °F 44% 30.27 in 10.0 mi NNW 4.6 mph - N/A   Clear
9:58 PM 29.8 °F 23.9 °F 15.8 °F 56% 30.30 in 10.0 mi North 5.8 mph - N/A   Clear
10:58 PM 30.0 °F 26.5 °F 15.4 °F 55% 30.29 in 10.0 mi North 3.5 mph - N/A   Clear
11:58 PM 28.4 °F 22.2 °F 14.7 °F 57% 30.30 in 10.0 mi North 5.8 mph - N/A   Clear